カタログに戻る

STARLINK-32831

運用中通信VLEO
NORAD 62860·PAYLOAD·🇺🇸 United States

打ち上げ Feb 1, 2025 から Vandenberg Space Force Base

Loading…

次のパス (今後24時間)

TLE

最新Source: CelesTrak SupGP

元期: Sep 14, 2026, 15:17 UTC

1 62860C 25022G   26257.63729167  .00037949  00000+0  11218-2 0  2579
2 62860  53.1583 328.7626 0001150  77.7343 300.6414 15.34354939    16

AllMySatでSTARLINK-32831をリアルタイム追跡

Download on the App Store